Location: Bidart
(43.4376°N, 1.5913°W)
Time: 05:38:51
(UTC+00:00)

H-2A DEB - Pass Details

Date: 14 April 2026
Orbit: 584 x 592 km, 98.2° (Epoch: 15 May)

Event Time Altitude Azimuth Distance (km) Brightness Sun altitude
Exits shadow 01:34:45 18° 354° (N) 1,485 ? -33.5°
Drops below altitude 10° 01:35:51 10° 352° (N) 1,928 ? -33.4°
Sets 01:38:02 0° 350° (N) 2,835 ? -33.3°
